Hatteras, NC

10:46 AM EDT on October 23, 2017 (GMT -0400)
Mitchell

Weather History for KHSE - September, 2012

Change the Weather History Date:

Saturday, September 29, 2012

  Actual Average Record
Temperature  
Mean Temperature 74 °F 71 °F  
Max Temperature 81 °F 77 °F 87 °F (2016)
Min Temperature 67 °F 65 °F 47 °F (1981)
Degree Days  
Heating Degree Days 0 0  
Month to date heating degree days 0 0  
Since 1 July heating degree days 0 0  
Cooling Degree Days 9 6  
Month to date cooling degree days 300 279  
Year to date cooling degree days 1950 1585  
Growing Degree Days 23 (Base 50)    
Moisture  
Dew Point 67 °F    
Average Humidity 85    
Maximum Humidity 100    
Minimum Humidity 69    
Precipitation  
Precipitation 1.00 in 0.19 in 4.83 in (1938)
Month to date precipitation 4.20 6.05  
Year to date precipitation 40.45 43.24  
Snow  
Snow 0.00 in - - ()
Month to date snowfall 0.0  
Since 1 July snowfall 0.0  
Snow Depth 0.00 in    
Sea Level Pressure  
Sea Level Pressure 29.94 in    
Wind  
Wind Speed 5 mph (North)    
Max Wind Speed 22 mph    
Max Gust Speed 31 mph    
Visibility 8 miles    
Events Fog , Rain    
T = Trace of Precipitation, MM = Missing Value Source: NWS Daily Summary

Daily Weather History Graph

Daily Weather History Graph

Search for Another Location

Airport or City:

Trip Planner

Search our weather history database for the weather conditions in past years. The results will help you decide how hot, cold, wet, or windy it might be!

Date:

Astronomy

Sep. 29, 2012 Rise Set
Actual Time 6:56 AM EDT 6:48 PM EDT
Civil Twilight 6:30 AM EDT 7:13 PM EDT
Nautical Twilight 6:01 AM EDT 7:43 PM EDT
Astronomical Twilight 5:31 AM EDT 8:12 PM EDT
Moon 6:21 PM EDT (9/29) 6:24 AM EDT (9/29)
Length of Visible Light 12h 43m
Length of Day
11h 52m
Full, 100% of the Moon is Illuminated
Sep 29
Full
Sep 29
Full
Oct 8
Last Quarter
Oct 15
New
Oct 21
First Quarter

Hourly Weather History & Observations

Time (EDT) Temp. Heat Index Dew Point Humidity Pressure Visibility Wind Dir Wind Speed Gust Speed Precip Events Conditions
12:51 AM 75.9 °F - 66.0 °F 71% 29.99 in 10.0 mi WSW 10.4 mph - N/A   Clear
1:51 AM 75.0 °F - 66.9 °F 76% 29.98 in 10.0 mi WSW 9.2 mph - N/A   Clear
2:51 AM 75.0 °F - 68.0 °F 79% 29.97 in 10.0 mi WSW 8.1 mph - N/A   Clear
3:51 AM 75.0 °F - 69.1 °F 82% 29.96 in 10.0 mi West 8.1 mph - N/A   Clear
4:51 AM 73.9 °F - 69.1 °F 85% 29.95 in 10.0 mi West 6.9 mph - N/A   Clear
5:51 AM 73.9 °F - 70.0 °F 87% 29.96 in 10.0 mi West 6.9 mph - N/A   Clear
6:48 AM 73.4 °F - 69.8 °F 88% 29.97 in 10.0 mi WNW 9.2 mph - N/A   Mostly Cloudy
6:51 AM 73.9 °F - 70.0 °F 87% 29.97 in 10.0 mi NW 9.2 mph - N/A   Mostly Cloudy
7:11 AM 73.4 °F - 69.8 °F 88% 29.97 in 10.0 mi WNW 6.9 mph - N/A   Scattered Clouds
7:49 AM 73.4 °F - 69.8 °F 88% 29.98 in 10.0 mi NW 5.8 mph - N/A   Partly Cloudy
7:51 AM 73.0 °F - 69.1 °F 87% 29.98 in 10.0 mi NW 4.6 mph - N/A   Partly Cloudy
8:10 AM 73.4 °F - 69.8 °F 88% 29.98 in 10.0 mi NW 5.8 mph - N/A   Mostly Cloudy
8:27 AM 73.4 °F - 69.8 °F 88% 29.99 in 9.0 mi NW 6.9 mph - N/A   Overcast
8:51 AM 73.0 °F - 69.1 °F 87% 29.99 in 8.0 mi Variable 5.8 mph - N/A   Mostly Cloudy
9:51 AM 73.0 °F - 68.0 °F 84% 29.99 in 10.0 mi Variable 4.6 mph - N/A   Mostly Cloudy
10:23 AM 73.4 °F - 66.2 °F 78% 29.99 in 10.0 mi NNE 5.8 mph - N/A   Scattered Clouds
10:51 AM 75.0 °F - 66.9 °F 76% 29.99 in 10.0 mi Variable 6.9 mph - N/A   Partly Cloudy
11:27 AM 75.2 °F - 68.0 °F 78% 29.97 in 10.0 mi NNE 8.1 mph - N/A   Mostly Cloudy
11:34 AM 75.2 °F - 66.2 °F 73% 29.97 in 10.0 mi NE 5.8 mph - N/A   Partly Cloudy
11:51 AM 75.0 °F - 68.0 °F 79% 29.96 in 10.0 mi ENE 5.8 mph - N/A   Partly Cloudy
12:51 PM 79.0 °F - 68.0 °F 69% 29.95 in 10.0 mi ESE 9.2 mph - N/A   Scattered Clouds
1:03 PM 78.8 °F - 68.0 °F 69% 29.94 in 10.0 mi Variable 4.6 mph 16.1 mph N/A   Mostly Cloudy
1:13 PM 78.8 °F - 68.0 °F 69% 29.94 in 10.0 mi SE 9.2 mph - N/A   Scattered Clouds
1:51 PM 80.1 °F 82.9 °F 69.1 °F 69% 29.92 in 10.0 mi SE 10.4 mph - N/A   Clear
2:36 PM 75.2 °F - 68.0 °F 78% 29.91 in 10.0 mi East 5.8 mph - N/A   Mostly Cloudy
2:51 PM 75.0 °F - 66.9 °F 76% 29.91 in 10.0 mi NE 3.5 mph - N/A   Overcast
3:51 PM 73.0 °F - 66.9 °F 81% 29.90 in 8.0 mi NNE 8.1 mph - 0.00 in Rain Light Rain
4:14 PM 71.6 °F - 66.2 °F 83% 29.91 in 0.8 mi NNW 11.5 mph 20.7 mph 0.09 in Rain Heavy Rain
4:29 PM 68.0 °F - 66.2 °F 94% 29.91 in 0.2 mi NNW 9.2 mph 26.5 mph 0.68 in Fog , Rain Heavy Rain
4:39 PM 66.2 °F - 66.2 °F 100% 29.93 in 2.0 mi Variable 3.5 mph 16.1 mph 0.79 in Rain Light Rain
4:47 PM 68.0 °F - 66.2 °F 94% 29.93 in 1.5 mi Variable 3.5 mph - 0.80 in Rain Heavy Rain
4:51 PM 68.0 °F - 66.0 °F 93% 29.93 in 1.2 mi NE 6.9 mph - 0.86 in Rain Heavy Rain
4:59 PM 66.2 °F - 66.2 °F 100% 29.91 in 2.0 mi NE 6.9 mph - 0.04 in Rain Rain
5:10 PM 66.2 °F - 66.2 °F 100% 29.91 in 3.0 mi East 4.6 mph - 0.06 in Rain Rain
5:51 PM 66.9 °F - 66.0 °F 97% 29.90 in 6.0 mi East 4.6 mph - 0.10 in Rain Light Rain
6:51 PM 68.0 °F - 64.9 °F 90% 29.88 in 10.0 mi ESE 5.8 mph - 0.01 in Rain Light Rain
7:51 PM 66.9 °F - 64.0 °F 90% 29.87 in 10.0 mi Calm Calm - 0.00 in   Clear
8:51 PM 68.0 °F - 66.0 °F 93% 29.89 in 10.0 mi Calm Calm - N/A   Mostly Cloudy
9:51 PM 66.9 °F - 66.0 °F 97% 29.91 in 10.0 mi Calm Calm - 0.01 in Rain Light Rain
10:51 PM 68.0 °F - 66.0 °F 93% 29.90 in 10.0 mi Calm Calm - 0.02 in Rain Light Rain
11:10 PM 68.0 °F - 66.2 °F 94% 29.90 in 10.0 mi Calm Calm - 0.00 in Rain Light Rain
11:51 PM 68.0 °F - 64.9 °F 90% 29.88 in 10.0 mi NNW 3.5 mph - 0.00 in   Mostly Cloudy